Regional Weather Roundup
Issued by NWS

Home | Current Version | Previous Version | Graphics & Text | Print | Product List | Glossary On
Versions: 1 2 3 4 5 6 7 8 9 10 11 12 13 14 15 16 17 18 19 20 21 22 23 24 25 26 27 28 29 30 31 32 33 34 35 36 37 38 39 40 41 42 43 44 45 46 47 48 49 50
740
ASUS43 KFSD 181510
RWRSD

WEATHER ROUNDUP FOR SOUTH DAKOTA
NATIONAL WEATHER SERVICE SIOUX FALLS SD
1000 AM CDT WED OCT 18 2017

NOTE: "FAIR" INDICATES FEW OR NO CLOUDS BELOW 12,000 FEET WITH NO
SIGNIFICANT WEATHER AND/OR OBSTRUCTIONS TO VISIBILITY.


SDZ001>005-009-010-012>017-181600-
NORTHWEST AND NORTH CENTRAL SOUTH DAKOTA

CITY           SKY/WX    TMP DP  RH WIND       PRES   REMARKS
BUFFALO          N/A     47  29  49 NW13      29.98R
FAITH            N/A     51  27  39 N22G29    29.99R
MOBRIDGE       MOSUNNY   58  31  35 NW21G29   29.92R
$$

SDZ012>016-024>037-041>051-057-063-072>074-181600-
SOUTHWEST AND SOUTH CENTRAL SOUTH DAKOTA

CITY           SKY/WX    TMP DP  RH WIND       PRES   REMARKS
RAPID CTY ARPT CLOUDY    53  28  38 N13       30.08R
PIERRE         SUNNY     59  30  33 N18G24    29.94R
CUSTER         SUNNY     55  19  24 VRB3      30.10R
ELLSWORTH AFB  SUNNY     53  28  37 N22       30.07
PHILIP         SUNNY     57  32  38 N14       30.02R
PINE RIDGE     SUNNY     61  26  26 N15       30.05R
SPEARFISH      FAIR      50  30  46 SW6       30.10R
WINNER         FAIR      60  35  39 N16G23    29.95R
$$

SDZ004>011-016>023-039-040-181600-
NORTHEAST SOUTH DAKOTA

CITY           SKY/WX    TMP DP  RH WIND       PRES   REMARKS
ABERDEEN       CLOUDY    59  38  45 N14       29.89R
WATERTOWN      CLOUDY    52  45  77 NW6       29.85R
BROOKINGS      CLOUDY    51  45  79 W5        29.86R
SISSETON         N/A     60  33  36 NW20      29.82R
$$

SDZ017-020-022-023-036>040-048>070-181600-
SOUTHEAST SOUTH DAKOTA

CITY           SKY/WX    TMP DP  RH WIND       PRES   REMARKS
SIOUX FALLS    PTSUNNY   57  47  69 SW7       29.83R
HURON          MOSUNNY   57  38  48 N16       29.88R
CHAMBERLAIN    SUNNY     60  39  46 N18       29.91R
MITCHELL       LGT RAIN  58  37  45 N20       29.87R
YANKTON        MOSUNNY   57  45  64 SW5       29.84R
$$

ABBREVIATIONS USED IN REMARKS
   TC - TEMPERATURE IN CELSIUS
  WCI - WIND CHILL INDEX
   HX - HEAT INDEX
  VSB - VISIBILITY





USA.gov is the U.S. government's official web portal to all federal, state and local government web resources and services.